World > North America > United States > Oregon
Hourly Weather in Lebanon, OregonLebanon, Oregon Hourly Weather

Lebanon, OR Hourly Weather

Hourly Weather Lebanon, OregonHourly Weather in Lebanon, OR
Lat: 44.53N, Lon: 122.9W  ICAO: KCVO
Web Search

Helpful Tip: Type the letters wx in the search engine next time you need to find us.

Feedback

Lebanon Hourly Weather

36 Hour Weather Scroll   °F Click to change Lebanon hourly weather to Imperial units.Click to change Lebanon hourly weather to Metric units. °C
Currently, Overcast, temperature is 47°F8°C, dew point 45°F7°C, humidity 93%. Wind direction is WNW at 12 mph19 km/h with visibility of 10.00 mi16 km. Barometric pressure is 30.03 in1017 mb.

Dec 08
4:00 AM

Dec 08
5:00 AM

Dec 08
6:00 AM

Dec 08
7:00 AM

Dec 08
8:00 AM

Dec 08
9:00 AM

Dec 08
10:00 AM

Dec 08
11:00 AM

Dec 08
NOON

Dec 08
1:00 PM

Dec 08
2:00 PM

Dec 08
3:00 PM

Dec 08
4:00 PM

Dec 08
5:00 PM

Dec 08
6:00 PM

Dec 08
7:00 PM

Dec 08
8:00 PM

Dec 08
9:00 PM

Dec 08
10:00 PM

Dec 08
11:00 PM

Dec 09
MIDNIGHT

Dec 09
1:00 AM

Dec 09
2:00 AM

Dec 09
3:00 AM

Dec 09
4:00 AM

Dec 09
5:00 AM

Dec 09
6:00 AM

Dec 09
7:00 AM

Dec 09
8:00 AM

Dec 09
9:00 AM

Dec 09
10:00 AM

Dec 09
11:00 AM

Dec 09
NOON

Dec 09
1:00 PM

Dec 09
2:00 PM

Dec 09
3:00 PM
Cloudy Cloudy Cloudy Cloudy Cloudy Cloudy Cloudy Cloudy Cloudy Cloudy Cloudy Cloudy Cloudy Cloudy Cloudy Cloudy Cloudy Cloudy Cloudy Cloudy Cloudy Cloudy Cloudy Cloudy Cloudy Cloudy Cloudy Cloudy Cloudy Cloudy Cloudy Cloudy Cloudy Cloudy Cloudy Cloudy
Cloudy Cloudy Cloudy Cloudy Cloudy Cloudy Cloudy Cloudy Cloudy Cloudy Cloudy Cloudy Cloudy Cloudy Cloudy Cloudy Cloudy Cloudy Cloudy Cloudy Cloudy Cloudy Cloudy Cloudy Cloudy Cloudy Cloudy Cloudy Cloudy Cloudy Cloudy Cloudy Cloudy Cloudy Cloudy Cloudy
47°F8°C 47°F8°C 47°F8°C 47°F8°C 47°F8°C 48°F9°C 48°F9°C 48°F9°C 49°F9°C 49°F9°C 48°F9°C 48°F9°C 47°F8°C 46°F8°C 44°F7°C 43°F6°C 43°F6°C 42°F6°C 42°F6°C 42°F6°C 41°F5°C 41°F5°C 41°F5°C 41°F5°C 41°F5°C 41°F5°C 40°F4°C 40°F4°C 40°F4°C 40°F4°C 40°F4°C 41°F5°C 42°F6°C 43°F6°C 43°F6°C 42°F6°C
Rain Rain Rain Rain Rain Rain Rain Rain Rain Rain Rain Rain Rain Rain Rain Rain Rain Rain Rain Rain Rain Rain Rain Rain Rain Rain Rain Rain Rain Rain Rain Rain Rain Rain Rain Rain
62% 62% 62% 62% 62% 62% 62% 41% 41% 41% 41% 41% 41% 39% 39% 39% 39% 39% 39% 51% 51% 51% 51% 51% 51% 60% 60% 60% 60% 60% 60% 76% 76% 76% 76% 76%
43°F6°C 43°F6°C 43°F6°C 43°F6°C 42°F6°C 42°F6°C 41°F5°C 41°F5°C 40°F4°C 40°F4°C 39°F4°C 39°F4°C 38°F3°C 37°F3°C 37°F3°C 36°F2°C 36°F2°C 36°F2°C 36°F2°C 36°F2°C 36°F2°C 36°F2°C 36°F2°C 36°F2°C 36°F2°C 36°F2°C 36°F2°C 36°F2°C 36°F2°C 36°F2°C 36°F2°C 36°F2°C 37°F3°C 37°F3°C 37°F3°C 37°F3°C
86% 86% 86% 86% 83% 80% 77% 77% 71% 71% 71% 71% 71% 71% 76% 76% 76% 79% 79% 79% 82% 82% 82% 82% 82% 82% 85% 85% 85% 85% 85% 82% 82% 79% 79% 82%
SW SW SSE SSE SW SSW WNW NW NW NW NW NW NW NW WNW W W W W SSW SSW SSW SW SW SSE SSE S S S SSE SSE SSE SW SW SW SW
8 mph 8 mph 8 mph 8 mph 8 mph 7 mph 7 mph 7 mph 5 mph 5 mph 5 mph 7 mph 7 mph 7 mph 5 mph 5 mph 5 mph 5 mph 5 mph 5 mph 4 mph 4 mph 4 mph 4 mph 4 mph 4 mph 6 mph 6 mph 6 mph 9 mph 9 mph 9 mph 8 mph 8 mph 8 mph 9 mph
10 mi16 km 10 mi16 km 10 mi16 km 10 mi16 km 10 mi16 km 10 mi16 km 10 mi16 km 10 mi16 km 10 mi16 km 10 mi16 km 10 mi16 km 10 mi16 km 10 mi16 km 10 mi16 km 10 mi16 km 10 mi16 km 10 mi16 km 10 mi16 km 10 mi16 km 10 mi16 km 10 mi16 km 10 mi16 km 10 mi16 km 10 mi16 km 10 mi16 km 10 mi16 km 10 mi16 km 10 mi16 km 10 mi16 km 10 mi16 km 10 mi16 km 10 mi16 km 10 mi16 km 10 mi16 km 10 mi16 km 10 mi16 km
Hour (PST)
Weather
Clouds
Temperature
Precip. Type
POP
Dewpoint
Humidity
Wind Direction
Wind Speed
Visibility
POP = Probability of Precipitation. ** Indicates missing data/values from model statistics.

24 Hour Forecast

Today - Rain until afternoon, then a chance of rain late in the afternoon. Highs 45 to 50. West wind 5 to 10 mph. Gusts to 20 mph in the morning. Chance of rain 90%. Rainfall amounts less than a tenth of an inch.
Tonight - Mostly cloudy. Chance of rain in the evening, then rain after midnight. Lows around 35. Southwest wind 5 to 10 mph. Chance of rain 70%. Rainfall amounts less than a tenth of an inch.

48 Hour Forecast API Feed


Wed, Dec 8
4:00 am

Wed, Dec 8
5:00 am

Wed, Dec 8
6:00 am

Wed, Dec 8
7:00 am

Wed, Dec 8
8:00 am

Wed, Dec 8
9:00 am

Wed, Dec 8
10:00 am

Wed, Dec 8
11:00 am

Wed, Dec 8
Noon

Wed, Dec 8
1:00 pm

Wed, Dec 8
2:00 pm

Wed, Dec 8
3:00 pm

Wed, Dec 8
4:00 pm

Wed, Dec 8
5:00 pm

Wed, Dec 8
6:00 pm

Wed, Dec 8
7:00 pm

Wed, Dec 8
8:00 pm

Wed, Dec 8
9:00 pm

Wed, Dec 8
10:00 pm

Wed, Dec 8
11:00 pm

Thu, Dec 9
Midnight

Thu, Dec 9
1:00 am

Thu, Dec 9
2:00 am

Thu, Dec 9
3:00 am

Thu, Dec 9
4:00 am

Thu, Dec 9
5:00 am

Thu, Dec 9
6:00 am

Thu, Dec 9
7:00 am

Thu, Dec 9
8:00 am

Thu, Dec 9
9:00 am

Thu, Dec 9
10:00 am

Thu, Dec 9
11:00 am

Thu, Dec 9
Noon

Thu, Dec 9
1:00 pm

Thu, Dec 9
2:00 pm

Thu, Dec 9
3:00 pm

Thu, Dec 9
4:00 pm

Thu, Dec 9
5:00 pm

Thu, Dec 9
6:00 pm

Thu, Dec 9
7:00 pm

Thu, Dec 9
8:00 pm

Thu, Dec 9
9:00 pm

Thu, Dec 9
10:00 pm

Thu, Dec 9
11:00 pm

Fri, Dec 10
Midnight

Fri, Dec 10
1:00 am

Fri, Dec 10
2:00 am

Fri, Dec 10
3:00 am
Light Rain ShowerLight RainPatchy Rain PossibleLight Rain ShowerPatchy Rain PossiblePatchy Rain PossibleLight Rain ShowerLight RainLight DrizzleLight DrizzleLight DrizzleLight Rain ShowerPatchy Rain PossibleLight Rain ShowerPatchy Rain PossibleCloudyPatchy Rain PossibleClearPatchy Rain PossibleCloudyOvercastPatchy Rain PossibleLight DrizzleLight DrizzleMistLight RainMistMistLight DrizzleLight Rain ShowerLight Rain ShowerLight RainOvercastPatchy Rain PossibleLight DrizzleLight Rain ShowerLight Rain ShowerLight RainLight Rain ShowerLight Rain ShowerLight Rain ShowerLight Rain ShowerLight Rain ShowerLight Rain ShowerMistLight Rain ShowerPatchy Rain PossiblePatchy Rain Possible
Light rain showers Light rain Patchy rain possible Light rain showers Patchy rain possible Patchy rain possible Light rain showers Light rain Light drizzle Light drizzle Light drizzle Light rain showers Patchy rain possible Light rain showers Patchy rain possible Cloudy Patchy rain possible Clear Patchy rain possible Cloudy Overcast Patchy rain possible Light drizzle Light drizzle Mist Light rain Mist Mist Light drizzle Light rain showers Light rain showers Light rain Overcast Patchy rain possible Light drizzle Light rain showers Light rain showers Light rain Light rain showers Light rain showers Light rain showers Light rain showers Light rain showers Light rain showers Mist Light rain showers Patchy rain possible Patchy rain possible
48°F
9°C
47°F
9°C
47°F
8°C
46°F
8°C
46°F
8°C
45°F
7°C
46°F
8°C
45°F
7°C
44°F
7°C
44°F
7°C
45°F
7°C
45°F
7°C
45°F
7°C
44°F
6°C
43°F
6°C
42°F
6°C
40°F
5°C
38°F
3°C
37°F
3°C
36°F
2°C
37°F
3°C
37°F
3°C
37°F
3°C
36°F
2°C
36°F
2°C
35°F
2°C
36°F
2°C
37°F
3°C
37°F
3°C
38°F
3°C
38°F
3°C
39°F
4°C
40°F
4°C
39°F
4°C
39°F
4°C
39°F
4°C
40°F
5°C
40°F
5°C
40°F
5°C
40°F
4°C
38°F
4°C
38°F
3°C
38°F
3°C
38°F
3°C
39°F
4°C
40°F
4°C
38°F
4°C
38°F
3°C
46°F
8°C
46°F
8°C
44°F
7°C
43°F
6°C
43°F
6°C
43°F
6°C
43°F
6°C
42°F
6°C
40°F
5°C
39°F
4°C
39°F
4°C
39°F
4°C
39°F
4°C
38°F
4°C
38°F
3°C
38°F
3°C
36°F
2°C
35°F
1°C
34°F
1°C
34°F
1°C
34°F
1°C
35°F
2°C
35°F
2°C
35°F
2°C
35°F
2°C
34°F
1°C
35°F
2°C
36°F
2°C
36°F
2°C
37°F
3°C
37°F
3°C
37°F
3°C
38°F
3°C
38°F
4°C
38°F
3°C
38°F
3°C
39°F
4°C
39°F
4°C
39°F
4°C
39°F
4°C
38°F
3°C
37°F
3°C
37°F
3°C
37°F
3°C
38°F
3°C
38°F
4°C
37°F
3°C
36°F
2°C
30.03 in
1017 mb
30 in
1016 mb
30.03 in
1017 mb
30.03 in
1017 mb
30.03 in
1017 mb
30.03 in
1017 mb
30.06 in
1018 mb
30.09 in
1019 mb
30.12 in
1020 mb
30.09 in
1019 mb
30.09 in
1019 mb
30.06 in
1018 mb
30.06 in
1018 mb
30.06 in
1018 mb
30.09 in
1019 mb
30.09 in
1019 mb
30.09 in
1019 mb
30.09 in
1019 mb
30.09 in
1019 mb
30.09 in
1019 mb
30.09 in
1019 mb
30.12 in
1020 mb
30.09 in
1019 mb
30.12 in
1020 mb
30.09 in
1019 mb
30.09 in
1019 mb
30.09 in
1019 mb
30.09 in
1019 mb
30.09 in
1019 mb
30.09 in
1019 mb
30.09 in
1019 mb
30.12 in
1020 mb
30.09 in
1019 mb
30.09 in
1019 mb
30.09 in
1019 mb
30.06 in
1018 mb
30.06 in
1018 mb
30.06 in
1018 mb
30.09 in
1019 mb
30.09 in
1019 mb
30.09 in
1019 mb
30.09 in
1019 mb
30.12 in
1020 mb
30.12 in
1020 mb
30.15 in
1021 mb
30.15 in
1021 mb
30.15 in
1021 mb
30.15 in
1021 mb
95%94%90%90%90%91%92%92%85%80%80%79%81%82%83%84%85%87%89%90%90%91%93%95%96%96%96%95%96%98%97%93%94%96%97%95%93%95%96%97%97%97%96%95%94%95%96%94%
WSWWWWSSWSWNWNNWWWWWWWNWWNWWSWSSWSSWSSSSSSSSSSWSSWSSWSSSSSWSSWSSWSWWSWSSWSSSSWSSWSSWSSWSSWSSWS
6 mph
9 km/h
5 mph
8 km/h
5 mph
8 km/h
4 mph
6 km/h
4 mph
6 km/h
5 mph
8 km/h
6 mph
10 km/h
7 mph
11 km/h
4 mph
7 km/h
3 mph
5 km/h
4 mph
7 km/h
5 mph
9 km/h
4 mph
7 km/h
4 mph
6 km/h
4 mph
7 km/h
4 mph
6 km/h
2 mph
3 km/h
2 mph
3 km/h
2 mph
4 km/h
3 mph
4 km/h
3 mph
5 km/h
3 mph
5 km/h
3 mph
5 km/h
3 mph
5 km/h
4 mph
7 km/h
5 mph
8 km/h
5 mph
9 km/h
5 mph
8 km/h
6 mph
10 km/h
7 mph
11 km/h
7 mph
11 km/h
7 mph
12 km/h
9 mph
14 km/h
10 mph
15 km/h
9 mph
14 km/h
9 mph
15 km/h
8 mph
13 km/h
7 mph
11 km/h
6 mph
9 km/h
5 mph
9 km/h
6 mph
9 km/h
6 mph
9 km/h
6 mph
9 km/h
6 mph
10 km/h
6 mph
10 km/h
5 mph
9 km/h
5 mph
8 km/h
4 mph
7 km/h
96%96%96%95%95%88%94%94%94%93%93%92%92%92%91%0%91%0%81%0%0%60%74%57%64%80%0%0%87%83%79%76%0%85%84%84%84%83%83%83%82%82%82%81%81%81%80%76%
6 mi
10 km
6 mi
9 km
6 mi
9 km
6 mi
10 km
6 mi
9 km
6 mi
10 km
6 mi
10 km
6 mi
9 km
1 mi
2 km
1 mi
2 km
1 mi
2 km
6 mi
10 km
6 mi
9 km
6 mi
10 km
6 mi
9 km
6 mi
10 km
6 mi
9 km
6 mi
10 km
6 mi
10 km
6 mi
10 km
6 mi
10 km
6 mi
10 km
1 mi
2 km
1 mi
2 km
1 mi
2 km
6 mi
9 km
1 mi
2 km
1 mi
2 km
1 mi
2 km
6 mi
10 km
6 mi
10 km
6 mi
9 km
6 mi
10 km
6 mi
10 km
1 mi
2 km
6 mi
10 km
6 mi
10 km
6 mi
9 km
6 mi
10 km
6 mi
10 km
6 mi
10 km
6 mi
10 km
6 mi
10 km
6 mi
10 km
1 mi
2 km
6 mi
10 km
6 mi
9 km
6 mi
10 km

Day/Time
Weather
Condition
Temperature
Dew Point
Pressure
Humidity
Wind Direction
Wind Speed
Prob Precip %
Visibility
Prob Precip % = Probability of Precipitation.